EZY18YZ EGPD-EGKK

Flight info

Callsign EZY18YZ
Flight time N/A
Altitude 24000
Route NAXIL P600 PTH/N0442F360 DCT ZOFAT/N0443F370 DCT ADZOP DCT EGTOC DCT KEPAD L151 DISIT
Aircraft A320/M-SDE3FGHIRWY/LB1

Departure

Time 2026-04-30 14:44
Airport Aberdeen International Airport (EGPD)

Arrival

Time N/A
Airport London Gatwick Airport (EGKK)
Time Latitude Longitude Altitude Speed Heading
2026-04-30 13:48 57.20135 -2.20312 247 ft 0 kts 248°
2026-04-30 14:34 57.20139 -2.20296 247 ft 4 kts 248°
2026-04-30 14:34 57.20149 -2.20250 247 ft 3 kts 248°
2026-04-30 14:34 57.20155 -2.20215 247 ft 4 kts 279°
2026-04-30 14:34 57.20143 -2.20181 247 ft 3 kts 337°
2026-04-30 14:35 57.20133 -2.20173 247 ft 0 kts 338°
2026-04-30 14:37 57.20139 -2.20178 247 ft 5 kts 338°
2026-04-30 14:38 57.20179 -2.20207 247 ft 6 kts 338°
2026-04-30 14:38 57.20218 -2.20235 247 ft 7 kts 338°
2026-04-30 14:38 57.20280 -2.20282 247 ft 12 kts 338°
2026-04-30 14:38 57.20353 -2.20336 247 ft 11 kts 338°
2026-04-30 14:39 57.20419 -2.20384 247 ft 9 kts 338°
2026-04-30 14:39 57.20473 -2.20369 247 ft 8 kts 41°
2026-04-30 14:39 57.20521 -2.20350 247 ft 10 kts 344°
2026-04-30 14:40 57.20645 -2.20439 247 ft 8 kts 338°
2026-04-30 14:40 57.20694 -2.20474 247 ft 7 kts 339°
2026-04-30 14:40 57.20742 -2.20511 247 ft 9 kts 337°
2026-04-30 14:40 57.20795 -2.20551 247 ft 8 kts 338°
2026-04-30 14:41 57.20858 -2.20597 247 ft 15 kts 338°
2026-04-30 14:41 57.20947 -2.20663 247 ft 10 kts 338°
2026-04-30 14:41 57.20999 -2.20636 247 ft 8 kts 54°
2026-04-30 14:41 57.21018 -2.20556 247 ft 6 kts 68°
2026-04-30 14:42 57.21031 -2.20494 247 ft 4 kts 69°
2026-04-30 14:42 57.21044 -2.20429 248 ft 4 kts 72°
2026-04-30 14:42 57.21038 -2.20398 248 ft 2 kts 137°
2026-04-30 14:42 57.21027 -2.20391 248 ft 0 kts 157°
2026-04-30 14:43 57.21027 -2.20390 248 ft 1 kts 157°
2026-04-30 14:43 57.20968 -2.20346 247 ft 34 kts 158°
2026-04-30 14:43 57.20508 -2.20007 250 ft 104 kts 158°
2026-04-30 14:43 57.19674 -2.19387 374 ft 142 kts 159°
2026-04-30 14:44 57.18793 -2.18739 1185 ft 134 kts 159°
2026-04-30 14:44 57.17895 -2.18088 1602 ft 150 kts 160°
2026-04-30 14:44 57.16844 -2.17465 1917 ft 170 kts 176°
2026-04-30 14:44 57.16032 -2.17771 2129 ft 188 kts 206°
2026-04-30 14:45 57.15109 -2.19666 2504 ft 218 kts 231°
2026-04-30 14:45 57.14259 -2.22142 3078 ft 238 kts 232°
2026-04-30 14:45 57.13359 -2.24762 3924 ft 244 kts 232°
2026-04-30 14:45 57.12430 -2.27422 4852 ft 249 kts 232°
2026-04-30 14:46 57.11477 -2.30100 5753 ft 252 kts 232°
2026-04-30 14:46 57.10502 -2.32794 6674 ft 254 kts 231°
2026-04-30 14:46 57.09511 -2.35490 7509 ft 256 kts 231°
2026-04-30 14:46 57.08499 -2.38220 8319 ft 261 kts 230°
2026-04-30 14:47 57.07467 -2.40988 9167 ft 264 kts 230°
2026-04-30 14:47 57.06425 -2.43779 10005 ft 267 kts 229°
2026-04-30 14:47 57.05365 -2.46611 10665 ft 276 kts 229°
2026-04-30 14:47 57.04227 -2.49625 10887 ft 299 kts 229°
2026-04-30 14:48 57.03005 -2.52856 11294 ft 314 kts 230°
2026-04-30 14:48 57.01751 -2.56197 11985 ft 320 kts 230°
2026-04-30 14:48 57.00484 -2.59579 12700 ft 325 kts 230°
2026-04-30 14:48 56.99195 -2.63008 13414 ft 328 kts 230°
2026-04-30 14:49 56.97887 -2.66474 14102 ft 332 kts 230°
2026-04-30 14:49 56.96560 -2.69957 14726 ft 334 kts 228°
2026-04-30 14:49 56.94953 -2.72903 15328 ft 331 kts 212°
2026-04-30 14:49 56.92929 -2.74878 15944 ft 331 kts 202°
2026-04-30 14:50 56.88703 -2.78473 17165 ft 340 kts 207°
2026-04-30 14:50 56.86620 -2.80563 17743 ft 344 kts 207°
2026-04-30 14:51 56.82373 -2.84823 18872 ft 352 kts 207°
2026-04-30 14:51 56.80214 -2.86989 19410 ft 356 kts 207°
2026-04-30 14:51 56.75838 -2.91370 20476 ft 362 kts 207°
2026-04-30 14:52 56.73630 -2.93580 21076 ft 363 kts 207°
2026-04-30 14:52 56.69165 -2.98038 22167 ft 369 kts 207°
2026-04-30 14:52 56.66908 -3.00288 22695 ft 372 kts 207°
2026-04-30 14:53 56.62336 -3.04848 23697 ft 378 kts 207°
2026-04-30 14:53 56.60024 -3.07145 24143 ft 381 kts 207°
2026-04-30 14:54 56.55387 -3.11741 24960 ft 384 kts 207°
2026-04-30 14:54 56.50665 -3.16399 25777 ft 388 kts 206°
2026-04-30 14:55 56.45902 -3.21077 26558 ft 391 kts 206°
2026-04-30 14:55 56.43501 -3.23427 26960 ft 393 kts 206°
2026-04-30 14:55 56.38676 -3.28156 27708 ft 396 kts 206°
2026-04-30 14:56 56.33810 -3.32901 28424 ft 399 kts 206°
2026-04-30 14:56 56.28916 -3.37629 29079 ft 403 kts 206°
2026-04-30 14:57 56.26411 -3.40043 29404 ft 405 kts 206°
2026-04-30 14:57 56.21461 -3.44821 30046 ft 408 kts 206°
2026-04-30 14:58 56.16432 -3.49661 30568 ft 412 kts 205°
2026-04-30 14:58 56.13904 -3.52085 30797 ft 413 kts 205°
2026-04-30 14:58 56.08821 -3.56947 31286 ft 415 kts 205°
2026-04-30 14:59 56.03716 -3.61816 31859 ft 414 kts 205°
2026-04-30 15:00 55.96135 -3.69046 32854 ft 410 kts 205°
2026-04-30 15:00 55.91111 -3.73804 33504 ft 407 kts 205°
2026-04-30 15:01 55.86122 -3.78513 34165 ft 405 kts 205°
2026-04-30 15:01 55.83640 -3.80853 34448 ft 404 kts 205°
2026-04-30 15:01 55.78674 -3.85517 34928 ft 403 kts 205°
2026-04-30 15:02 55.76194 -3.87842 35146 ft 403 kts 205°
2026-04-30 15:02 55.73710 -3.90163 35355 ft 403 kts 205°
2026-04-30 15:03 55.66239 -3.97137 35853 ft 407 kts 205°
2026-04-30 15:03 55.61020 -4.00869 36201 ft 404 kts 189°
2026-04-30 15:04 55.55452 -4.01059 36544 ft 403 kts 170°
2026-04-30 15:04 55.47414 -3.96732 37016 ft 405 kts 163°
2026-04-30 15:05 55.39383 -3.92165 37219 ft 403 kts 163°
2026-04-30 15:06 55.34046 -3.89155 37215 ft 403 kts 163°
2026-04-30 15:07 55.23376 -3.83130 37218 ft 403 kts 163°
2026-04-30 15:08 55.12697 -3.77147 37199 ft 404 kts 163°
2026-04-30 15:09 54.99305 -3.69677 37207 ft 404 kts 163°
2026-04-30 15:10 54.88579 -3.63727 37196 ft 405 kts 163°
2026-04-30 15:11 54.72465 -3.54879 37200 ft 406 kts 163°
2026-04-30 15:13 54.58814 -3.48465 37191 ft 407 kts 167°
2026-04-30 15:14 54.39551 -3.40015 37193 ft 409 kts 166°
2026-04-30 15:17 54.14693 -3.29134 37195 ft 410 kts 166°
2026-04-30 15:19 53.92839 -3.18075 37198 ft 410 kts 160°